RON348 YSSY-YSCB

Flight info

Callsign RON348
Flight time 0h 28m
Altitude 24000
Route WOL H65 CB
Aircraft B737/M-SDE2E3FGHIRWXY/LB1

Departure

Time 2026-04-25 04:01
Airport Sydney Kingsford Smith International Airport (YSSY)

Arrival

Time 2026-04-25 04:30
Airport Canberra Airport (YSCB)
Time Latitude Longitude Altitude Speed Heading
2026-04-25 03:34 -33.92769 151.17472 29 ft 0 kts 77°
2026-04-25 03:55 -33.92773 151.17453 29 ft 4 kts 75°
2026-04-25 03:55 -33.92783 151.17424 29 ft 4 kts 49°
2026-04-25 03:55 -33.92797 151.17406 29 ft 4 kts 63°
2026-04-25 03:56 -33.92799 151.17381 29 ft 4 kts 128°
2026-04-25 03:56 -33.92779 151.17363 29 ft 3 kts 166°
2026-04-25 03:56 -33.92776 151.17362 29 ft 0 kts 168°
2026-04-25 03:58 -33.92787 151.17365 29 ft 6 kts 169°
2026-04-25 03:58 -33.92853 151.17374 29 ft 11 kts 188°
2026-04-25 03:59 -33.92888 151.17321 30 ft 6 kts 259°
2026-04-25 03:59 -33.92892 151.17300 30 ft 0 kts 259°
2026-04-25 03:59 -33.92892 151.17299 30 ft 1 kts 259°
2026-04-25 04:00 -33.92913 151.17244 30 ft 14 kts 238°
2026-04-25 04:00 -33.92975 151.17172 30 ft 10 kts 183°
2026-04-25 04:00 -33.93091 151.17199 30 ft 40 kts 168°
2026-04-25 04:00 -33.93641 151.17342 28 ft 118 kts 168°
2026-04-25 04:01 -33.94619 151.17587 119 ft 164 kts 167°
2026-04-25 04:01 -33.95745 151.17845 839 ft 166 kts 172°
2026-04-25 04:01 -33.96911 151.17841 1629 ft 169 kts 181°
2026-04-25 04:01 -33.98160 151.17795 2277 ft 196 kts 182°
2026-04-25 04:02 -33.99664 151.17710 2650 ft 235 kts 184°
2026-04-25 04:02 -34.01350 151.17576 3355 ft 246 kts 184°
2026-04-25 04:02 -34.03106 151.17559 4067 ft 265 kts 169°
2026-04-25 04:02 -34.04890 151.18165 4745 ft 273 kts 162°
2026-04-25 04:03 -34.06740 151.18824 4997 ft 275 kts 163°
2026-04-25 04:03 -34.08559 151.19449 5054 ft 276 kts 164°
2026-04-25 04:03 -34.10452 151.20087 5803 ft 278 kts 164°
2026-04-25 04:03 -34.12279 151.20702 7099 ft 275 kts 165°
2026-04-25 04:04 -34.14138 151.21324 8302 ft 280 kts 165°
2026-04-25 04:04 -34.16033 151.21956 9538 ft 284 kts 164°
2026-04-25 04:04 -34.17960 151.22561 10708 ft 293 kts 170°
2026-04-25 04:04 -34.20053 151.22381 11443 ft 314 kts 199°
2026-04-25 04:05 -34.21902 151.20947 12486 ft 323 kts 224°
2026-04-25 04:05 -34.23401 151.18899 13700 ft 327 kts 229°
2026-04-25 04:05 -34.24873 151.16770 14808 ft 333 kts 229°
2026-04-25 04:05 -34.26379 151.14598 15900 ft 339 kts 229°
2026-04-25 04:06 -34.27914 151.12408 17014 ft 345 kts 227°
2026-04-25 04:06 -34.29491 151.10177 18116 ft 351 kts 228°
2026-04-25 04:06 -34.31094 151.07915 19143 ft 357 kts 227°
2026-04-25 04:06 -34.32724 151.05616 20121 ft 362 kts 227°
2026-04-25 04:07 -34.34370 151.03295 21138 ft 366 kts 227°
2026-04-25 04:07 -34.36038 151.00941 22107 ft 372 kts 227°
2026-04-25 04:07 -34.37759 150.98581 23076 ft 375 kts 224°
2026-04-25 04:07 -34.39652 150.96410 24037 ft 378 kts 220°
2026-04-25 04:08 -34.41642 150.94302 24315 ft 377 kts 218°
2026-04-25 04:08 -34.43622 150.92236 24356 ft 375 kts 218°
2026-04-25 04:08 -34.45577 150.90175 24363 ft 371 kts 219°
2026-04-25 04:08 -34.47510 150.88112 24370 ft 370 kts 219°
2026-04-25 04:09 -34.49414 150.86054 24376 ft 371 kts 219°
2026-04-25 04:09 -34.51343 150.83959 24365 ft 373 kts 219°
2026-04-25 04:09 -34.53274 150.81857 24375 ft 373 kts 219°
2026-04-25 04:09 -34.55206 150.79750 24375 ft 373 kts 220°
2026-04-25 04:10 -34.56990 150.77453 24364 ft 376 kts 229°
2026-04-25 04:10 -34.58564 150.74922 24362 ft 376 kts 232°
2026-04-25 04:10 -34.60080 150.72331 24364 ft 376 kts 232°
2026-04-25 04:10 -34.61583 150.69731 24357 ft 376 kts 232°
2026-04-25 04:11 -34.64662 150.64471 24381 ft 400 kts 232°
2026-04-25 04:11 -34.66330 150.61665 24374 ft 420 kts 232°
2026-04-25 04:11 -34.68055 150.58775 24362 ft 422 kts 232°
2026-04-25 04:12 -34.69787 150.55878 24357 ft 425 kts 232°
2026-04-25 04:12 -34.71529 150.52968 24353 ft 425 kts 232°
2026-04-25 04:12 -34.73267 150.50064 24357 ft 425 kts 232°
2026-04-25 04:12 -34.75007 150.47159 24351 ft 425 kts 232°
2026-04-25 04:13 -34.76747 150.44251 24348 ft 425 kts 232°
2026-04-25 04:13 -34.78486 150.41341 24354 ft 425 kts 232°
2026-04-25 04:13 -34.80223 150.38432 24352 ft 425 kts 232°
2026-04-25 04:13 -34.81958 150.35525 24346 ft 424 kts 232°
2026-04-25 04:14 -34.83689 150.32621 24350 ft 424 kts 232°
2026-04-25 04:14 -34.85423 150.29710 24356 ft 424 kts 232°
2026-04-25 04:14 -34.87155 150.26802 24349 ft 424 kts 232°
2026-04-25 04:14 -34.88883 150.23896 24348 ft 424 kts 232°
2026-04-25 04:15 -34.90611 150.20989 24360 ft 424 kts 232°
2026-04-25 04:15 -34.92339 150.18077 24348 ft 424 kts 232°
2026-04-25 04:15 -34.94066 150.15166 24355 ft 424 kts 232°
2026-04-25 04:15 -34.95769 150.12295 24350 ft 424 kts 233°
2026-04-25 04:16 -34.97498 150.09375 24341 ft 424 kts 233°
2026-04-25 04:16 -34.99225 150.06456 24145 ft 425 kts 233°
2026-04-25 04:16 -35.00956 150.03529 23379 ft 424 kts 233°
2026-04-25 04:16 -35.02668 150.00632 22634 ft 419 kts 233°
2026-04-25 04:17 -35.04359 149.97767 21976 ft 413 kts 233°
2026-04-25 04:17 -35.06066 149.94974 21282 ft 408 kts 229°
2026-04-25 04:17 -35.07957 149.92430 20622 ft 402 kts 225°
2026-04-25 04:17 -35.09910 149.90017 19963 ft 398 kts 224°
2026-04-25 04:18 -35.11857 149.87632 19303 ft 395 kts 225°
2026-04-25 04:18 -35.13768 149.85243 18615 ft 393 kts 226°
2026-04-25 04:18 -35.15659 149.82832 17862 ft 391 kts 226°
2026-04-25 04:18 -35.17524 149.80431 17172 ft 388 kts 227°
2026-04-25 04:19 -35.19365 149.78051 16430 ft 383 kts 227°
2026-04-25 04:19 -35.21165 149.75719 16146 ft 370 kts 227°
2026-04-25 04:19 -35.22925 149.73436 15900 ft 371 kts 227°
2026-04-25 04:19 -35.24716 149.71112 15310 ft 379 kts 227°
2026-04-25 04:20 -35.26519 149.68773 14688 ft 374 kts 227°
2026-04-25 04:20 -35.28283 149.66484 14041 ft 365 kts 227°
2026-04-25 04:20 -35.30016 149.64233 13344 ft 361 kts 227°
2026-04-25 04:20 -35.31725 149.62012 12686 ft 356 kts 227°
2026-04-25 04:21 -35.33413 149.59817 12064 ft 352 kts 227°
2026-04-25 04:21 -35.35092 149.57634 11406 ft 351 kts 227°
2026-04-25 04:21 -35.36750 149.55475 10741 ft 341 kts 227°
2026-04-25 04:21 -35.38305 149.53451 10209 ft 321 kts 227°
2026-04-25 04:22 -35.39808 149.51492 9502 ft 309 kts 227°
2026-04-25 04:22 -35.41252 149.49607 8814 ft 298 kts 227°
2026-04-25 04:22 -35.42651 149.47779 8144 ft 290 kts 227°
2026-04-25 04:22 -35.44014 149.46000 7492 ft 283 kts 227°
2026-04-25 04:23 -35.45361 149.44237 6866 ft 285 kts 229°
2026-04-25 04:23 -35.46329 149.42179 6577 ft 276 kts 252°
2026-04-25 04:23 -35.46587 149.39876 6209 ft 270 kts 269°
2026-04-25 04:23 -35.46570 149.37588 5793 ft 267 kts 271°
2026-04-25 04:24 -35.46535 149.35381 5693 ft 252 kts 271°
2026-04-25 04:24 -35.46509 149.33282 5573 ft 240 kts 271°
2026-04-25 04:24 -35.46490 149.31285 5483 ft 228 kts 270°
2026-04-25 04:24 -35.46478 149.29386 5382 ft 217 kts 270°
2026-04-25 04:25 -35.46467 149.27579 5293 ft 207 kts 270°
2026-04-25 04:25 -35.46463 149.25846 5206 ft 198 kts 270°
2026-04-25 04:25 -35.46478 149.24190 5112 ft 189 kts 269°
2026-04-25 04:25 -35.46496 149.22597 4947 ft 185 kts 269°
2026-04-25 04:26 -35.46394 149.21042 4732 ft 186 kts 291°
2026-04-25 04:26 -35.45570 149.19840 4562 ft 190 kts 327°
2026-04-25 04:26 -35.44297 149.19426 4361 ft 193 kts 356°
2026-04-25 04:26 -35.42973 149.19397 4136 ft 188 kts 356°
2026-04-25 04:27 -35.41675 149.19366 3877 ft 185 kts 355°
2026-04-25 04:27 -35.40402 149.19342 3655 ft 181 kts 357°
2026-04-25 04:27 -35.39145 149.19337 3384 ft 179 kts 358°
2026-04-25 04:27 -35.37922 149.19353 3156 ft 172 kts 359°
2026-04-25 04:28 -35.36772 149.19380 2952 ft 156 kts
2026-04-25 04:28 -35.35753 149.19450 2799 ft 135 kts 359°
2026-04-25 04:28 -35.34853 149.19464 2659 ft 127 kts 358°
2026-04-25 04:28 -35.33995 149.19444 2457 ft 124 kts 357°
2026-04-25 04:29 -35.33139 149.19439 2244 ft 122 kts 357°
2026-04-25 04:29 -35.32308 149.19442 2047 ft 118 kts 356°
2026-04-25 04:29 -35.31483 149.19441 1889 ft 120 kts 357°
2026-04-25 04:29 -35.30710 149.19439 1875 ft 94 kts
2026-04-25 04:30 -35.30240 149.19445 1878 ft 38 kts
2026-04-25 04:30 -35.30001 149.19444 1878 ft 35 kts 359°
2026-04-25 04:30 -35.29751 149.19443 1877 ft 36 kts 360°
2026-04-25 04:30 -35.29598 149.19418 1878 ft 16 kts 315°
2026-04-25 04:31 -35.29580 149.19300 1878 ft 11 kts 261°
2026-04-25 04:31 -35.29631 149.19243 1876 ft 11 kts 188°
2026-04-25 04:31 -35.29707 149.19242 1877 ft 11 kts 180°
2026-04-25 04:31 -35.29781 149.19243 1878 ft 11 kts 179°
2026-04-25 04:32 -35.29842 149.19243 1878 ft 7 kts 180°
2026-04-25 04:32 -35.29892 149.19242 1878 ft 7 kts 180°
2026-04-25 04:32 -35.29941 149.19243 1878 ft 7 kts 180°
2026-04-25 04:32 -35.29988 149.19243 1878 ft 7 kts 180°
2026-04-25 04:33 -35.30049 149.19243 1878 ft 11 kts 180°
2026-04-25 04:33 -35.30148 149.19242 1876 ft 17 kts 181°
2026-04-25 04:33 -35.30287 149.19239 1879 ft 23 kts 179°
2026-04-25 04:33 -35.30449 149.19238 1879 ft 23 kts 180°
2026-04-25 04:34 -35.30606 149.19239 1879 ft 22 kts 180°
2026-04-25 04:34 -35.30743 149.19239 1879 ft 13 kts 180°
2026-04-25 04:34 -35.30795 149.19224 1879 ft 6 kts 243°
2026-04-25 04:34 -35.30797 149.19174 1879 ft 7 kts 269°
2026-04-25 04:35 -35.30797 149.19155 1879 ft 0 kts 270°